Date,TemperatureHighF,TemperatureAvgF,TemperatureLowF,DewpointHighF,DewpointAvgF,DewpointLowF,HumidityHigh,HumidityAvg,HumidityLow,PressureMaxIn,PressureMinIn,WindSpeedMaxMPH,WindSpeedAvgMPH,GustSpeedMaxMPH,PrecipitationSumIn
2014-1-1,35.8,28.3,13.2,26.6,14.1,6.1,100,57,31,30.03,29.66,2,1,10,0.01
2014-1-2,43.5,31.6,19.0,11.5,6.2,1.6,63,35,22,30.10,29.87,3,0,9,0.01
2014-1-3,45.4,37.0,30.8,12.2,7.5,4.2,44,30,19,29.87,29.37,4,1,19,0.00
2014-1-4,34.5,19.1,-0.7,21.2,10.8,-4.5,90,73,39,29.85,29.33,3,0,7,0.00
2014-1-5,15.9,4.0,-7.0,3.7,-4.3,-11.9,88,70,44,30.36,29.84,2,0,4,0.04
2014-1-6,31.5,19.2,-3.3,9.1,0.1,-10.6,79,43,31,30.40,30.19,3,1,9,0.02
2014-1-7,42.0,32.2,24.9,15.8,11.2,6.6,60,42,29,30.18,29.68,3,0,13,0.03
2014-1-8,34.8,25.9,19.2,16.5,14.2,12.2,78,62,42,29.84,29.70,2,0,4,0.00
2014-1-9,34.6,26.3,21.9,16.9,13.5,8.4,78,59,33,29.81,29.50,3,1,13,0.00
2014-1-10,29.6,23.6,16.8,17.1,7.0,-1.9,81,49,37,29.79,29.48,5,2,11,0.00
2014-1-11,44.9,33.5,25.1,19.4,15.4,9.9,63,48,34,29.95,29.53,2,1,9,0.00
2014-1-12,33.9,26.0,16.7,22.0,10.7,-0.1,77,52,35,29.80,29.37,6,1,11,0.00
2014-1-13,35.7,25.5,14.4,10.6,6.4,-0.7,52,44,32,30.01,29.80,6,2,15,0.00
2014-1-14,35.0,27.2,21.5,11.9,8.6,5.2,62,46,29,30.17,29.93,3,1,10,0.00
2014-1-15,40.9,31.6,25.2,14.5,11.7,9.1,53,44,30,30.13,29.93,4,1,11,0.00
2014-1-16,41.4,27.5,14.6,10.2,6.3,2.8,68,43,20,30.08,29.93,3,0,7,0.00
2014-1-17,40.5,30.4,18.8,12.9,9.5,6.0,57,42,31,30.06,29.90,3,1,14,0.00
2014-1-18,45.4,31.6,21.1,12.5,8.9,6.0,63,40,21,30.02,29.90,2,0,5,0.00
2014-1-19,46.1,36.5,26.5,13.1,8.9,3.0,44,32,23,30.00,29.81,3,1,14,0.00
2014-1-20,43.7,32.5,23.4,13.8,8.2,2.9,61,37,21,30.15,29.77,2,0,6,0.00
2014-1-21,46.8,34.1,20.5,3.2,-6.8,-18.4,38,19,7,30.16,29.93,5,1,14,0.00
2014-1-22,39.5,24.1,14.7,14.4,-1.0,-11.6,89,37,11,29.98,29.75,2,0,6,0.00
2014-1-23,21.3,13.7,6.4,15.8,9.6,3.4,93,84,54,30.43,29.96,1,0,4,0.04
2014-1-24,42.7,32.7,20.9,7.6,0.6,-11.8,55,26,14,30.42,30.07,3,1,6,0.00
2014-1-25,51.0,39.0,25.2,18.1,13.1,4.3,51,35,21,30.07,29.64,2,1,8,0.00
2014-1-26,45.1,32.5,20.2,19.2,13.2,11.1,91,47,27,29.71,29.52,2,0,9,0.00
2014-1-27,26.9,15.4,4.6,19.1,9.4,1.1,94,79,47,30.01,29.64,2,0,6,0.00
2014-1-28,27.5,13.5,-6.0,9.7,-2.1,-10.1,91,55,26,30.26,29.99,2,0,7,0.08
2014-1-29,41.5,31.9,14.0,23.1,9.5,-8.0,60,40,25,30.14,29.42,4,2,15,0.01
2014-1-30,37.2,30.7,24.9,31.4,26.3,17.1,95,85,50,29.41,29.29,4,1,15,0.07
2014-1-31,29.1,23.6,18.9,26.0,21.3,17.0,96,91,81,29.50,29.29,1,0,15,0.00
2014-2-1,22.6,18.4,16.6,19.0,16.2,14.9,94,91,83,29.67,29.50,0,0,15,0.04
2014-2-2,27.8,20.4,9.6,14.0,9.0,3.4,87,62,46,30.04,29.88,5,1,15,0.11
2014-2-3,31.9,21.0,13.1,13.9,9.4,4.4,89,62,40,29.89,29.61,3,1,15,0.06
2014-2-4,18.0,10.4,-4.8,12.9,7.1,-8.6,91,86,78,30.06,29.62,2,0,15,0.00
2014-2-5,13.2,-0.9,-11.3,5.2,-5.8,-15.7,92,79,67,30.28,30.06,1,0,15,0.00
2014-2-6,29.2,16.2,2.0,13.1,6.4,-1.5,88,67,40,30.24,29.80,3,1,15,0.01
2014-2-7,34.0,21.7,7.8,15.2,10.7,4.7,91,65,41,29.80,29.69,4,1,15,0.03
2014-2-8,38.4,30.6,22.9,21.5,16.9,9.1,74,57,45,29.81,29.70,4,1,15,0.04
2014-2-9,44.7,36.1,29.5,30.2,24.9,21.2,87,65,44,29.74,29.55,4,1,15,0.01
2014-2-10,38.0,28.3,16.4,31.2,23.7,14.3,94,83,64,29.87,29.60,1,0,15,0.12
2014-2-11,38.5,24.1,7.4,18.4,9.6,1.0,95,59,22,29.96,29.81,2,1,15,0.04
2014-2-12,42.3,31.9,19.1,23.7,13.6,6.0,60,47,26,29.98,29.68,5,2,15,0.00
2014-2-13,46.4,38.6,33.9,27.2,23.7,21.9,75,55,41,29.76,29.51,4,2,15,0.00
2014-2-14,46.2,38.8,33.1,27.1,23.5,19.0,76,55,37,29.70,29.53,4,2,15,0.00
2014-2-15,51.6,42.6,29.4,26.7,21.8,16.2,75,45,27,29.69,29.61,4,2,15,0.00
2014-2-16,47.9,38.4,29.5,25.5,19.9,11.0,71,48,30,29.71,29.49,5,1,15,0.00
2014-2-17,46.0,35.1,25.5,11.1,2.9,-3.9,44,26,13,29.89,29.69,4,1,15,0.00
2014-2-18,49.3,38.7,28.4,14.9,5.6,-1.8,53,27,13,29.70,29.62,4,1,15,0.00
2014-2-19,45.4,32.9,22.0,27.4,17.5,11.3,89,56,28,29.65,29.23,4,1,15,0.00
2014-2-20,25.4,19.6,9.6,17.7,-0.1,-8.0,84,44,26,29.91,29.30,4,1,15,0.00
2014-2-21,36.5,27.5,18.7,8.4,4.7,-4.3,60,38,24,29.91,29.73,3,1,15,0.01
2014-2-22,39.8,31.5,25.7,15.7,9.1,3.9,50,39,28,29.73,29.57,5,1,15,0.00
2014-2-23,46.3,35.8,23.7,11.3,8.4,5.7,52,33,19,29.79,29.67,4,1,15,0.00
2014-2-24,48.2,38.1,27.0,13.5,9.3,5.8,53,31,21,29.76,29.63,4,1,15,0.00
2014-2-25,50.1,32.5,9.6,17.8,12.8,6.8,89,49,24,29.80,29.57,4,1,16,0.00
2014-2-26,49.3,29.6,8.9,20.5,14.4,5.6,96,59,23,29.83,29.74,2,0,15,0.00
2014-2-27,44.7,35.7,27.6,30.1,21.6,18.1,87,57,38,29.76,29.30,3,1,15,0.00
2014-2-28,44.2,35.9,29.4,23.7,18.2,9.3,72,50,24,29.54,29.31,5,2,17,0.02
2014-3-1,40.4,34.6,30.8,32.6,28.1,22.6,92,77,59,29.56,29.36,4,1,16,0.03
2014-3-2,41.0,31.4,24.3,26.6,21.9,17.7,90,70,41,29.85,29.52,1,0,15,0.01
2014-3-3,46.7,34.5,25.2,20.1,18.1,16.0,74,52,33,29.86,29.73,2,0,15,0.00
2014-3-4,45.0,36.1,25.4,26.2,17.3,13.4,76,48,29,29.74,29.55,3,0,15,0.00
2014-3-5,46.0,33.0,18.5,28.0,15.9,7.2,100,56,21,29.92,29.66,2,0,15,0.06
2014-3-6,52.7,41.3,30.2,17.1,10.4,5.5,41,29,17,29.91,29.51,4,1,15,0.00
2014-3-7,42.6,32.0,23.3,30.1,23.4,17.5,94,72,43,29.84,29.42,3,0,15,0.00
2014-3-8,35.4,25.0,13.9,25.5,20.3,11.5,94,83,60,30.24,29.84,1,0,6,0.55
2014-3-9,56.1,38.3,18.9,24.2,13.6,1.8,86,43,14,30.24,29.90,2,0,7,0.01
2014-3-10,56.0,45.1,35.4,10.2,1.7,-12.7,30,17,6,29.90,29.35,4,1,11,0.00
2014-3-11,39.1,32.0,14.5,20.8,12.2,2.1,86,47,23,29.98,29.25,4,1,14,0.00
2014-3-12,44.5,24.0,8.0,13.6,6.2,-8.5,91,56,11,30.22,29.98,2,0,6,0.05
2014-3-13,46.5,36.0,19.7,21.8,11.1,1.4,62,37,23,30.12,29.67,4,1,13,0.00
2014-3-14,48.9,35.1,22.2,21.8,16.2,5.7,78,49,21,29.79,29.66,2,0,9,0.00
2014-3-15,37.3,30.6,21.3,18.1,11.0,1.1,60,45,22,30.07,29.62,4,1,8,0.00
2014-3-16,52.5,34.6,19.1,14.8,10.1,6.2,61,39,18,30.14,29.79,2,1,6,0.00
2014-3-17,52.2,39.0,26.1,25.4,11.1,5.2,68,34,16,29.79,29.07,4,1,12,0.00
2014-3-18,36.8,26.1,18.5,20.1,7.1,0.9,91,48,24,29.86,29.11,3,1,9,0.00
2014-3-19,42.9,26.8,6.7,20.4,11.5,-0.3,92,59,18,30.03,29.86,2,0,9,0.22
2014-3-20,52.0,39.8,31.2,8.4,-0.7,-6.0,32,18,10,29.93,29.58,6,1,10,0.00
2014-3-21,48.4,35.2,26.2,19.4,10.4,-0.4,71,39,15,29.76,29.54,2,0,6,0.00
2014-3-22,46.4,29.1,19.2,20.6,16.8,13.4,93,64,31,30.03,29.68,3,0,7,0.00
2014-3-23,45.7,32.1,17.1,20.7,10.7,-5.2,100,50,12,30.02,29.84,4,1,9,0.00
2014-3-24,49.9,36.8,25.4,15.7,5.0,0.3,65,28,14,29.87,29.76,3,1,8,0.00
2014-3-25,56.3,38.8,23.4,19.7,10.9,5.0,68,36,13,29.88,29.50,3,0,8,0.00
2014-3-26,50.1,37.5,27.7,28.9,21.7,12.6,87,55,29,29.50,29.10,4,1,11,0.00
2014-3-27,44.1,34.8,28.7,24.3,17.2,7.5,72,51,23,29.57,29.10,4,1,9,0.00
2014-3-28,42.5,32.6,22.8,20.7,12.0,5.1,74,46,23,30.00,29.55,3,1,9,0.00
2014-3-29,52.9,38.9,22.0,13.4,8.5,3.1,63,31,16,30.01,29.71,4,1,9,0.00
2014-3-30,51.7,43.3,32.0,22.5,13.6,7.6,61,31,20,29.71,29.15,6,2,15,0.00
2014-3-31,45.9,34.7,25.6,13.0,5.0,-16.0,56,33,7,29.69,29.28,4,2,11,0.00
2014-4-1,52.7,37.1,21.2,19.7,12.6,4.4,82,43,16,29.66,29.38,5,1,12,0.00
2014-4-2,45.3,38.6,28.9,19.1,12.4,2.4,62,35,23,29.39,29.20,5,2,17,0.00
2014-4-3,31.2,26.1,15.2,26.1,21.5,12.8,92,83,58,29.93,29.30,3,0,17,0.22
2014-4-4,39.5,26.4,9.3,24.4,16.9,6.8,100,70,39,30.02,29.82,2,0,17,0.21
2014-4-5,41.3,30.4,23.5,29.3,23.0,16.8,95,76,41,29.82,29.58,3,0,17,0.00
2014-4-6,42.4,30.5,19.8,28.2,22.5,13.9,96,74,37,29.76,29.64,4,0,17,0.12
2014-4-7,44.8,34.2,22.2,23.0,16.1,6.7,85,52,21,29.97,29.76,3,1,17,0.00
2014-4-8,58.3,43.5,27.6,22.2,20.6,18.1,74,43,22,29.98,29.84,2,1,17,0.00
2014-4-9,61.3,50.2,39.9,21.8,16.6,10.3,44,27,17,29.85,29.54,4,1,17,0.00
2014-4-10,61.6,47.9,33.3,21.5,14.6,11.1,57,29,14,29.65,29.49,5,1,17,0.00
2014-4-11,64.4,48.4,29.5,26.6,17.8,9.1,81,37,12,29.69,29.50,4,1,17,0.00
2014-4-12,60.0,47.2,34.1,27.3,17.5,7.8,59,33,16,29.50,29.22,2,1,17,0.00
2014-4-13,42.9,29.6,13.2,32.6,24.1,10.8,94,82,47,29.81,29.20,4,1,17,0.01
2014-4-14,35.9,21.9,8.2,25.9,16.2,5.1,91,79,53,30.17,29.81,2,0,17,0.45
2014-4-15,50.7,37.2,20.7,18.8,11.2,6.0,67,37,17,30.11,29.50,3,1,17,0.00
2014-4-16,51.8,38.5,26.6,30.2,18.3,7.4,95,51,21,29.72,29.38,3,1,17,0.00
2014-4-17,51.3,35.8,26.0,34.3,28.4,24.8,96,78,38,29.88,29.72,2,0,17,0.53
2014-4-18,63.1,48.9,30.1,29.9,25.6,22.4,96,43,22,29.85,29.54,4,0,17,0.00
2014-4-19,58.7,47.0,37.7,41.1,32.9,25.5,93,60,36,29.66,29.50,3,0,17,0.07
2014-4-20,55.9,43.5,33.9,42.9,36.4,31.8,98,79,41,29.81,29.63,2,0,17,0.12
2014-4-21,55.3,44.2,31.1,37.2,33.9,29.7,95,70,46,29.89,29.79,3,0,17,0.00
2014-4-22,62.5,47.8,32.9,35.8,32.5,28.4,96,59,32,29.82,29.32,3,1,17,0.00
2014-4-23,55.9,46.5,35.7,33.0,23.8,16.8,70,42,24,29.41,29.16,3,1,17,0.00
2014-4-24,58.2,41.6,22.9,18.4,11.6,7.3,70,34,15,29.67,29.42,4,1,17,0.00
2014-4-25,63.3,49.5,29.7,17.6,10.8,3.1,56,23,9,29.64,29.27,4,1,17,0.00
2014-4-26,58.6,46.8,30.5,33.2,22.5,15.1,90,42,22,29.27,28.93,5,1,17,0.00
2014-4-27,46.2,37.3,29.4,26.7,19.0,13.1,86,49,29,29.34,28.85,5,2,17,0.02
2014-4-28,39.8,31.7,24.7,21.2,14.1,8.3,64,49,31,29.75,29.32,3,1,17,0.00
2014-4-29,44.2,33.0,20.9,11.8,9.1,6.2,60,38,21,29.98,29.75,2,1,17,0.00
2014-4-30,46.4,35.1,22.1,21.8,12.6,1.0,72,42,16,30.01,29.87,3,0,17,0.00
2014-5-1,49.4,34.8,17.6,18.6,9.8,-4.9,81,43,13,30.01,29.86,4,1,17,0.00
2014-5-2,62.7,46.6,26.1,21.9,17.3,12.5,59,34,17,29.92,29.67,3,0,17,0.00
2014-5-3,69.1,55.0,38.2,23.8,16.8,7.3,53,26,9,29.68,29.49,3,1,17,0.00
2014-5-4,71.0,56.9,41.0,19.0,13.0,4.2,36,19,10,29.52,29.37,5,1,17,0.00
2014-5-5,70.6,56.7,42.6,23.7,11.9,6.3,42,18,8,29.47,29.25,5,1,17,0.00
2014-5-6,65.6,53.0,39.7,18.2,10.2,-1.2,33,19,7,29.28,29.09,6,1,17,0.00
2014-5-7,57.6,46.6,35.6,24.5,14.7,9.0,62,29,16,29.29,29.12,5,1,17,0.00
2014-5-8,48.7,38.7,27.8,27.4,19.4,14.6,70,47,30,29.66,29.29,3,0,17,0.01
2014-5-9,55.2,42.8,29.3,28.6,23.1,19.3,70,47,30,29.66,29.49,4,1,17,0.01
2014-5-10,62.0,48.3,31.6,30.2,26.3,20.4,77,45,21,29.56,29.22,4,1,17,0.00
2014-5-11,47.9,35.7,24.9,36.8,30.4,23.4,96,83,47,29.64,29.14,4,1,17,0.26
2014-5-12,29.6,25.8,21.9,24.7,22.7,19.9,94,88,72,30.21,29.64,4,0,17,0.21
2014-5-13,34.0,26.2,17.2,26.6,21.5,15.0,94,83,63,30.37,30.20,1,0,4,0.30
2014-5-14,44.2,32.9,19.2,27.4,21.3,16.7,94,66,34,30.37,30.11,2,0,6,0.10
2014-5-15,56.2,40.3,24.6,28.7,24.9,21.9,93,59,28,30.13,29.90,2,0,7,0.01
2014-5-16,63.6,48.0,30.7,40.5,29.4,20.7,93,56,21,29.90,29.64,3,1,8,0.01
2014-5-17,66.8,50.9,37.1,41.0,34.2,18.0,97,62,17,29.70,29.49,3,0,7,0.04
2014-5-18,70.4,55.3,35.3,41.2,26.8,14.6,91,42,16,29.55,29.33,4,0,10,0.00
2014-5-19,74.6,59.4,46.7,20.4,13.1,4.7,33,17,7,29.34,29.22,4,1,12,0.00
2014-5-20,70.6,57.4,38.7,22.2,12.6,3.4,45,19,7,29.47,29.33,5,1,11,0.00
2014-5-21,63.9,52.1,39.5,45.6,38.2,13.4,93,61,31,29.64,29.46,3,1,7,0.00
2014-5-22,64.2,49.9,37.4,45.7,40.5,35.2,97,73,34,29.77,29.62,4,1,8,0.09
2014-5-23,63.0,47.8,38.0,45.7,41.1,36.4,98,80,40,29.77,29.56,3,0,7,0.44
2014-5-24,60.4,44.3,35.9,45.4,38.6,34.8,98,83,42,29.68,29.53,2,0,6,1.04
2014-5-25,54.3,43.7,36.1,42.5,37.3,31.4,99,80,46,29.71,29.56,2,0,5,0.02
2014-5-26,62.6,47.5,33.0,43.6,36.3,31.5,97,70,34,29.77,29.66,3,0,5,0.03
2014-5-27,72.1,57.4,38.4,40.5,34.6,20.2,95,49,16,29.76,29.65,3,0,12,0.00
2014-5-28,76.5,58.3,40.2,41.6,34.4,23.7,82,47,15,29.69,29.56,4,0,12,0.00
2014-5-29,75.0,58.6,43.9,48.6,39.3,34.1,91,54,24,29.60,29.47,6,1,8,0.03
2014-5-30,65.3,53.7,43.2,51.5,45.4,41.4,94,75,44,29.64,29.52,2,0,8,0.04
2014-5-31,68.2,54.2,39.6,51.7,42.5,37.3,99,69,34,29.68,29.51,3,0,8,0.06
2014-6-1,73.2,59.5,44.2,44.8,26.3,8.6,90,39,9,29.52,29.39,4,1,9,0.00
2014-6-2,75.8,59.1,42.9,47.3,37.9,19.0,92,52,15,29.57,29.47,3,1,6,0.00
2014-6-3,77.5,63.1,45.0,42.6,26.5,15.0,88,31,10,29.51,29.30,4,1,13,0.00
2014-6-4,75.2,61.8,43.1,41.7,28.9,9.6,62,31,12,29.43,29.28,3,1,7,0.00
2014-6-5,71.1,57.7,41.6,46.8,38.6,18.7,95,52,31,29.50,29.38,4,1,13,0.00
2014-6-6,75.8,60.2,42.9,46.1,39.3,19.1,90,53,13,29.50,29.32,2,0,6,0.00
2014-6-7,64.7,53.5,42.7,47.8,44.1,39.3,90,71,52,29.57,29.39,3,1,7,0.00
2014-6-8,63.3,50.8,40.1,47.1,39.7,25.0,95,69,28,29.57,29.38,3,0,7,0.05
2014-6-9,68.3,49.9,34.6,32.8,24.8,11.4,85,45,11,29.72,29.58,3,0,6,0.00
2014-6-10,75.3,57.1,33.8,32.4,26.5,22.1,77,37,15,29.66,29.47,4,1,12,0.00
2014-6-11,76.2,56.5,41.0,41.8,32.7,27.5,72,44,17,29.57,29.33,6,0,11,0.00
2014-6-12,67.9,53.0,42.5,46.6,42.9,37.1,93,71,45,29.66,29.54,2,0,7,0.00
2014-6-13,77.6,60.6,39.8,43.0,33.5,22.8,95,45,14,29.64,29.25,4,1,12,0.00
2014-6-14,71.9,57.7,44.2,32.1,23.6,8.7,54,29,9,29.37,29.07,6,1,10,0.00
2014-6-15,69.9,55.1,33.4,34.5,20.9,7.1,58,30,10,29.50,29.36,5,1,9,0.00
2014-6-16,73.9,61.8,42.5,17.1,11.1,4.5,35,15,8,29.40,29.24,5,1,15,0.00
2014-6-17,72.2,62.7,45.6,26.6,20.9,7.2,29,20,12,29.32,29.21,5,2,11,0.00
2014-6-18,69.1,58.6,40.9,34.7,27.7,23.0,60,32,18,29.45,29.24,5,1,18,0.00
2014-6-19,75.9,56.9,34.2,39.7,28.8,21.9,85,41,15,29.67,29.45,4,0,7,0.00
2014-6-20,79.5,62.8,41.7,35.9,24.1,16.1,68,29,10,29.65,29.44,3,0,9,0.00
2014-6-21,76.0,60.8,47.6,45.4,32.3,24.2,64,38,16,29.47,29.36,3,0,6,0.00
2014-6-22,50.1,45.9,41.9,34.3,30.7,26.3,70,56,41,29.50,29.44,0,0,6,0.00
2014-6-24,75.8,66.5,53.5,50.1,36.3,28.0,86,37,18,29.60,29.52,5,1,11,0.00
2014-6-25,79.1,62.3,44.3,49.6,40.0,27.1,97,52,15,29.57,29.38,5,1,7,0.01
2014-6-26,81.2,65.3,43.9,38.3,28.2,16.6,74,31,10,29.44,29.16,4,1,10,0.00
2014-6-27,73.4,64.0,49.7,32.5,26.2,14.9,49,25,14,29.24,29.08,4,1,12,0.00
2014-6-28,75.8,61.6,43.4,35.7,26.4,12.1,62,31,9,29.49,29.24,3,1,12,0.00
2014-6-29,84.2,66.4,44.7,32.3,26.3,23.6,50,25,12,29.50,29.35,4,1,12,0.00
2014-6-30,85.4,70.0,52.8,45.4,30.3,19.1,63,27,10,29.40,29.27,4,1,10,0.00
2014-7-1,68.1,56.5,48.3,49.1,46.2,43.9,89,69,48,29.69,29.36,3,1,8,0.00
2014-7-2,69.3,56.3,47.2,50.6,46.4,42.7,94,70,49,29.75,29.59,3,1,11,0.01
2014-7-3,80.5,61.4,42.5,45.8,40.7,30.6,98,55,19,29.72,29.61,3,0,10,0.01
2014-7-4,82.5,63.0,48.7,51.6,41.6,33.2,89,51,17,29.69,29.53,4,1,8,0.02
2014-7-5,81.1,63.4,44.1,45.9,40.1,31.3,92,48,18,29.69,29.63,3,0,7,0.00
2014-7-6,81.1,66.8,47.8,50.1,36.4,31.5,66,36,17,29.65,29.51,3,0,8,0.01
2014-7-7,84.9,67.1,49.4,42.8,37.4,32.3,62,36,16,29.59,29.42,3,0,7,0.00
2014-7-8,72.9,58.1,48.1,55.2,47.8,37.6,96,70,51,29.71,29.51,3,0,6,0.15
2014-7-9,79.1,65.5,49.3,47.6,42.6,38.0,81,46,24,29.69,29.46,2,0,6,0.00
2014-7-10,82.0,66.6,51.6,44.7,41.4,35.1,71,43,19,29.49,29.37,4,0,9,0.00
2014-7-11,81.9,64.8,52.9,57.0,47.2,41.2,93,55,26,29.57,29.43,3,0,6,0.20
2014-7-12,79.6,59.6,51.3,58.7,50.2,46.4,94,74,33,29.78,29.56,3,0,6,0.83
2014-7-13,73.5,59.8,46.4,55.3,51.9,45.4,99,77,46,29.78,29.67,3,0,6,0.01
2014-7-14,74.3,61.2,52.3,56.3,52.8,48.4,98,77,41,29.72,29.62,4,1,12,0.05
2014-7-15,75.8,58.6,48.3,56.7,50.9,43.4,98,79,32,29.72,29.52,3,0,6,0.23
2014-7-16,56.1,51.3,48.2,48.9,47.2,45.3,95,86,68,29.55,29.49,1,0,6,0.01
2014-7-17,66.6,58.5,46.3,52.7,50.5,46.0,99,76,56,29.62,29.52,3,1,7,0.05
2014-7-18,77.6,57.9,46.4,57.8,47.3,37.9,99,74,24,29.62,29.50,3,0,6,0.23
2014-7-19,76.4,58.5,46.1,56.2,46.9,35.3,97,70,23,29.66,29.58,5,0,9,0.24
2014-7-20,56.2,53.1,49.4,46.4,43.6,41.6,84,70,60,29.60,29.56,0,0,6,0.00
2014-7-21,79.3,68.2,52.4,51.0,43.1,33.8,73,44,21,29.64,29.52,5,1,11,0.00
2014-7-22,85.2,70.4,51.7,53.2,39.6,22.5,83,37,10,29.75,29.62,4,1,11,0.02
2014-7-23,82.5,65.4,51.4,54.2,45.5,31.1,86,57,17,29.75,29.63,5,1,8,0.00
2014-7-24,78.4,66.3,55.2,54.7,49.4,44.5,93,61,32,29.51,29.39,2,1,6,0.15
2014-7-25,81.8,67.6,52.9,60.6,50.2,41.1,93,60,26,29.54,29.43,4,1,9,0.12
2014-7-26,82.6,65.3,53.3,57.8,51.0,43.1,95,66,27,29.72,29.52,3,0,6,0.31
2014-7-27,73.0,63.5,47.3,57.2,53.4,46.2,99,72,45,29.79,29.70,4,1,5,0.08
2014-7-28,73.6,59.9,51.9,57.7,53.4,48.7,97,82,42,29.79,29.70,4,0,15,0.33
2014-7-29,69.3,57.9,46.8,54.9,51.2,46.3,100,80,52,29.75,29.58,2,0,15,0.01
2014-7-30,58.9,53.4,49.3,55.3,52.0,48.8,98,95,85,29.81,29.60,3,1,15,0.47
2014-7-31,58.0,51.7,48.8,54.5,50.6,48.3,99,96,86,29.82,29.75,3,0,15,0.26
2014-8-1,59.9,51.9,44.6,53.3,49.9,43.8,100,93,75,29.84,29.77,4,0,15,0.29
2014-8-2,69.2,55.4,40.6,51.7,46.2,40.1,100,74,46,29.89,29.75,3,0,15,0.01
2014-8-3,73.6,58.5,45.5,56.2,49.3,44.7,100,74,42,29.80,29.61,3,0,15,0.24
2014-8-4,74.9,60.4,48.4,52.4,49.1,46.1,94,70,36,29.67,29.53,5,0,15,0.00
2014-8-5,74.0,60.5,49.7,50.9,46.8,38.4,94,65,31,29.62,29.53,5,1,15,0.00
2014-8-6,78.9,63.1,45.5,49.1,41.5,23.0,95,53,13,29.64,29.53,3,1,15,0.00
2014-8-7,72.8,60.7,48.5,56.0,46.8,38.5,93,63,30,29.56,29.45,4,0,15,0.08
2014-8-8,76.4,61.2,45.6,51.5,43.6,27.0,98,61,17,29.59,29.49,4,0,15,0.00
2014-8-9,78.6,61.6,44.8,51.2,39.8,27.1,95,55,15,29.68,29.54,2,0,15,0.04
2014-8-10,70.8,54.3,43.7,51.6,45.4,42.1,97,75,41,29.92,29.67,7,1,15,0.38
2014-8-11,70.6,56.0,41.8,51.1,45.5,41.0,99,72,40,29.92,29.84,2,0,15,0.00
2014-8-12,78.0,61.0,45.9,50.6,45.8,40.0,98,63,27,29.86,29.63,4,0,15,0.01
2014-8-13,78.1,63.6,47.5,50.0,46.2,40.1,94,57,26,29.69,29.52,5,1,15,0.00
2014-8-14,73.1,61.0,51.7,53.3,49.8,47.0,93,69,41,29.54,29.43,3,0,15,0.06
2014-8-15,76.0,61.0,47.3,51.7,46.1,39.6,91,61,31,29.62,29.51,4,0,15,0.02
2014-8-16,76.7,60.7,45.1,50.3,42.4,35.4,95,56,23,29.69,29.60,3,0,15,0.01
2014-8-17,81.9,61.9,45.6,47.5,39.9,33.9,80,50,19,29.67,29.55,2,0,15,0.00
2014-8-18,80.4,65.4,48.4,41.9,37.3,27.2,72,39,15,29.62,29.42,2,0,15,0.00
2014-8-19,78.0,62.7,52.0,47.5,42.1,36.4,73,49,23,29.45,29.29,4,1,15,0.00
2014-8-20,76.4,63.1,50.8,47.4,42.9,38.5,72,50,26,29.40,29.32,4,0,15,0.00
2014-8-21,75.7,63.9,50.0,42.8,37.2,31.9,62,39,22,29.52,29.40,2,0,15,0.00
2014-8-22,60.4,52.9,44.1,51.1,46.3,39.3,97,80,46,29.57,29.47,0,0,15,0.15
2014-8-23,65.4,54.6,42.6,49.6,43.3,38.2,98,68,46,29.58,29.50,4,1,15,0.01
2014-8-24,71.7,57.7,46.7,52.7,41.3,32.5,94,59,29,29.57,29.47,3,1,15,0.07
2014-8-25,70.6,57.1,45.1,50.3,43.9,39.0,92,65,34,29.64,29.55,3,0,15,0.06
2014-8-26,69.4,54.7,47.0,51.6,48.4,42.9,98,82,39,29.71,29.62,4,0,15,0.14
2014-8-27,65.8,54.7,48.3,50.3,44.6,36.7,98,72,41,29.69,29.61,4,1,15,0.05
2014-8-28,64.3,51.1,42.8,50.1,41.9,36.0,96,72,42,29.72,29.61,3,0,15,0.10
2014-8-29,73.4,56.2,42.7,44.1,39.1,30.5,95,58,21,29.74,29.61,2,0,15,0.00
2014-8-30,74.3,57.4,39.9,42.2,38.7,33.6,95,56,23,29.67,29.49,3,0,15,0.00
2014-8-31,75.5,62.5,48.6,39.5,35.7,31.0,69,39,20,29.49,29.30,5,1,15,0.00
2014-9-1,76.3,58.7,40.7,46.3,34.4,25.5,100,49,16,29.59,29.38,5,1,15,0.00
2014-9-2,79.1,60.1,40.4,45.3,34.7,24.8,92,47,14,29.60,29.44,3,0,15,0.00
2014-9-3,81.2,64.0,46.7,40.1,32.0,26.5,62,34,15,29.47,29.32,4,1,15,0.00
2014-9-4,77.7,61.3,48.6,47.9,34.3,27.0,84,40,18,29.58,29.35,5,1,15,0.03
2014-9-5,62.4,50.0,45.4,47.7,44.5,42.1,94,82,55,29.89,29.57,2,0,15,0.01
2014-9-6,68.6,53.9,42.7,49.7,45.9,41.2,98,77,42,29.89,29.76,6,1,15,0.08
2014-9-7,72.3,55.9,42.8,50.1,43.4,38.2,99,68,29,29.80,29.60,4,0,15,0.01
2014-9-8,66.9,56.7,45.6,46.3,43.1,39.9,83,62,44,29.63,29.48,2,0,15,0.00
2014-9-9,67.7,56.0,50.5,53.4,46.1,39.5,92,70,48,29.49,29.32,2,0,15,0.12
2014-9-10,67.4,53.0,41.2,44.3,37.3,28.8,88,60,25,29.65,29.43,4,0,15,0.00
2014-9-11,72.0,52.6,38.7,46.1,37.6,23.3,97,65,16,29.71,29.55,4,1,15,0.00
2014-9-12,45.5,37.0,30.8,42.4,34.1,30.0,98,90,69,30.02,29.72,3,0,15,0.12
2014-9-13,72.6,52.3,30.0,35.4,30.1,20.1,97,52,14,30.01,29.74,3,1,15,0.00
2014-9-14,74.8,56.1,38.5,35.6,31.6,25.2,76,45,17,29.74,29.59,4,0,15,0.00
2014-9-15,70.5,54.6,43.6,45.9,38.4,30.8,91,57,26,29.79,29.66,2,0,15,0.00
2014-9-16,77.1,61.9,43.5,43.7,37.1,30.7,94,45,19,29.77,29.57,3,1,8,0.00
2014-9-17,75.1,59.8,46.2,41.6,36.6,32.5,66,45,22,29.58,29.46,4,0,8,0.00
2014-9-21,57.9,53.3,50.7,52.7,50.8,48.7,97,91,82,29.82,29.73,2,0,4,0.06
2014-9-22,64.4,53.3,47.7,53.2,47.9,41.6,98,83,50,29.81,29.64,2,0,6,0.14
2014-9-23,68.5,54.4,41.8,47.4,42.1,39.3,95,66,36,29.76,29.64,2,0,7,0.00
2014-9-24,72.4,56.5,40.2,44.2,38.6,33.3,95,57,24,29.83,29.72,2,0,5,0.00
2014-9-25,74.6,58.9,42.2,44.8,39.9,37.7,85,54,28,29.78,29.60,2,1,7,0.00
2014-9-26,77.7,59.3,42.3,43.5,38.6,32.6,87,51,24,29.64,29.46,3,0,9,0.00
2014-9-27,74.8,58.1,43.3,45.6,36.2,30.8,77,48,23,29.53,29.36,4,1,6,0.00
2014-9-28,62.0,52.4,45.3,51.3,43.6,31.4,96,73,50,29.59,29.42,2,0,8,0.36
2014-9-29,59.5,45.4,38.9,46.9,40.4,31.4,98,84,52,29.57,29.37,3,0,7,0.61
2014-9-30,53.2,45.4,38.5,33.2,30.8,27.8,70,57,42,29.55,29.50,4,1,17,0.00
2014-10-1,54.5,43.3,33.4,39.7,30.6,22.4,89,62,41,29.61,29.46,4,0,11,0.02
2014-10-2,55.0,42.2,28.5,27.7,22.4,15.1,82,48,23,29.85,29.61,4,1,6,0.00
2014-10-3,60.7,43.6,28.5,32.3,24.0,18.3,95,50,20,29.98,29.85,2,0,5,0.00
2014-10-4,66.2,52.2,36.1,29.3,24.5,18.4,59,35,21,29.91,29.58,2,0,8,0.00
2014-10-5,65.1,51.2,36.2,29.4,22.0,9.5,64,34,13,29.64,29.52,3,1,9,0.00
2014-10-6,65.8,54.1,40.7,29.9,26.3,23.6,52,35,20,29.64,29.51,4,1,9,0.00
2014-10-7,67.6,52.1,36.8,31.9,25.5,18.8,62,39,16,29.67,29.56,3,0,5,0.00
2014-10-8,68.8,51.6,37.5,37.6,30.0,14.6,77,49,13,29.67,29.55,2,0,6,0.00
2014-10-9,47.3,42.7,36.1,43.7,39.4,34.7,100,89,62,29.79,29.52,2,0,5,0.81
2014-10-10,43.5,39.1,36.5,39.8,37.7,35.6,98,95,84,29.91,29.79,1,0,5,0.18
2014-10-11,58.3,47.4,37.9,38.5,35.2,30.3,97,65,38,29.86,29.49,3,1,7,0.00
2014-10-12,47.3,41.3,31.2,38.3,31.4,24.5,93,69,54,29.71,29.23,4,0,6,0.13
2014-10-13,50.1,36.8,26.6,25.6,23.2,19.6,88,61,30,29.97,29.71,2,0,8,0.01
2014-10-14,66.0,43.0,26.4,32.1,25.9,21.6,85,56,20,29.97,29.86,2,0,6,0.00
2014-10-15,66.4,50.9,35.1,29.2,24.4,15.7,77,40,16,29.86,29.56,5,0,11,0.00
2014-10-16,66.2,53.1,38.2,28.7,23.6,17.2,66,34,16,29.59,29.49,2,0,8,0.00
2014-10-17,62.3,43.3,29.5,33.0,28.9,22.9,89,61,23,29.83,29.58,2,0,5,0.00
2014-10-18,61.8,46.5,34.5,36.5,33.0,29.1,87,63,31,29.83,29.68,1,0,9,0.00
2014-10-19,62.4,50.5,37.6,43.4,35.9,31.8,91,60,33,29.73,29.60,4,0,10,0.06
2014-10-20,61.8,45.9,33.5,41.5,34.4,30.5,97,69,31,29.82,29.71,3,0,8,0.00
2014-10-21,61.1,49.5,37.0,40.3,36.1,31.7,90,62,36,29.74,29.52,4,1,14,0.02
2014-10-22,57.9,46.5,39.1,39.2,35.1,31.8,86,66,38,29.76,29.54,3,0,7,0.00
2014-10-23,62.4,50.5,39.7,32.3,29.1,24.9,71,45,30,29.83,29.74,2,0,9,0.00
2014-10-24,68.9,55.5,42.2,27.8,20.9,10.4,47,28,11,29.79,29.69,2,0,8,0.00
2014-10-25,68.5,52.8,38.9,26.5,19.7,6.8,54,30,9,29.82,29.61,4,0,12,0.00
2014-10-26,64.7,53.2,39.1,33.9,26.7,19.7,55,37,21,29.61,29.31,3,1,10,0.00
2014-10-27,54.2,43.8,24.7,30.4,25.0,10.3,83,50,21,29.68,29.28,2,1,8,0.00
2014-10-28,55.0,36.8,20.6,20.3,10.0,1.4,89,41,13,29.99,29.68,2,0,8,0.00
2014-10-29,58.8,45.1,26.8,16.5,9.1,4.2,47,25,13,29.97,29.81,3,1,9,0.00
2014-10-30,55.0,42.2,30.2,22.9,18.8,11.9,62,40,26,30.05,29.86,1,0,5,0.00
2014-10-31,54.3,40.8,24.5,27.7,22.6,19.3,82,51,28,30.05,29.80,3,0,9,0.00
2014-11-1,55.2,46.5,41.7,38.7,34.2,27.8,74,62,44,29.81,29.49,4,1,8,0.01
2014-11-2,46.1,40.4,32.8,38.9,35.1,30.2,94,82,65,29.52,29.43,2,0,6,0.12
2014-11-3,43.3,34.6,25.6,33.4,22.7,15.3,94,65,35,29.93,29.46,2,0,9,0.01
2014-11-4,48.2,33.8,20.3,27.2,15.9,-1.1,93,55,13,30.09,29.93,1,0,5,0.00
2014-11-5,55.7,39.0,27.1,23.4,15.9,5.6,64,40,26,30.15,29.96,1,0,7,0.00
2014-11-6,62.5,42.6,26.6,22.7,18.9,14.8,68,42,20,30.19,29.88,1,0,6,0.00
2014-11-7,58.8,47.3,32.8,30.0,17.6,10.8,83,33,19,29.89,29.65,4,0,8,0.00
2014-11-8,58.5,42.0,25.2,30.0,17.0,-3.1,96,48,9,29.99,29.82,2,0,7,0.00
2014-11-9,58.0,48.7,32.9,14.2,9.0,4.5,35,20,15,29.82,29.22,2,1,8,0.00
2014-11-10,55.7,39.8,12.9,25.1,16.8,9.6,92,45,18,29.49,29.01,5,1,14,0.00
2014-11-11,21.7,11.6,5.2,12.5,7.6,2.2,91,84,61,30.13,29.49,2,1,7,0.00
2014-11-12,5.2,-1.3,-6.6,2.2,-4.8,-10.4,87,85,83,30.51,30.13,1,0,5,0.00
2014-11-13,35.7,15.6,-11.6,26.9,10.1,-15.8,92,79,63,30.53,29.96,2,0,6,0.09
2014-11-14,41.7,33.9,28.2,26.1,22.8,17.5,84,64,44,29.96,29.49,3,1,9,0.01
2014-11-15,40.0,27.3,5.6,23.7,17.1,2.3,91,68,40,29.70,29.47,4,1,12,0.00
2014-11-16,26.9,13.8,3.8,12.6,4.1,0.5,97,68,34,30.21,29.70,2,0,5,0.02
2014-11-17,30.7,20.4,7.7,2.9,-0.5,-4.1,61,41,25,30.20,30.06,2,1,8,0.00
2014-11-18,36.6,26.6,12.5,5.5,1.8,-1.8,56,35,24,30.12,29.96,3,1,8,0.00
2014-11-19,45.0,35.5,26.3,1.7,-1.9,-6.3,32,20,13,29.96,29.75,2,1,12,0.00
2014-11-20,48.6,36.2,27.5,18.5,3.7,-7.3,54,27,14,29.75,29.65,2,0,5,0.00
2014-11-21,44.5,33.5,23.8,15.5,13.0,10.0,61,44,25,29.78,29.64,3,0,7,0.00
2014-11-22,46.7,36.0,24.7,27.4,14.8,7.1,75,44,20,29.78,29.30,7,1,16,0.00
2014-11-23,34.1,25.3,12.8,25.3,13.4,0.1,91,62,33,29.75,29.26,3,1,9,0.04
2014-11-24,29.0,18.9,8.9,9.5,2.3,-1.1,73,49,29,30.20,29.75,4,1,10,0.01
2014-11-25,37.4,27.4,15.3,18.6,9.9,-0.2,57,48,37,30.19,29.90,6,3,15,0.01
2014-11-26,48.9,37.5,26.8,23.4,21.0,18.0,72,52,35,30.06,29.88,3,1,9,0.02
2014-11-27,52.9,40.6,28.0,18.2,14.7,10.9,65,37,20,30.09,29.84,2,0,8,0.00
2014-11-28,56.4,45.3,31.8,11.6,5.6,1.2,39,21,11,29.84,29.49,4,1,15,0.00
2014-11-29,50.9,43.7,37.7,6.0,2.7,-0.8,24,18,12,29.49,29.34,3,1,9,0.00
2014-11-30,47.0,35.8,11.4,12.7,7.3,2.1,90,34,20,29.87,29.42,2,0,8,0.00
2014-12-1,44.5,28.9,11.5,22.6,13.1,9.1,91,57,27,30.09,29.87,3,0,8,0.00
2014-12-2,49.3,40.4,31.7,11.2,3.9,-3.0,34,23,12,30.00,29.67,3,1,12,0.00
2014-12-3,46.2,38.3,30.6,25.1,16.1,-0.7,56,41,21,29.79,29.65,5,1,11,0.00
2014-12-4,44.4,39.1,27.7,25.5,23.4,21.6,80,54,42,29.73,29.56,4,0,7,0.00
2014-12-5,47.2,34.5,27.0,25.2,20.7,16.9,82,60,30,30.14,29.67,1,0,7,0.00
2014-12-6,41.5,32.0,23.0,26.6,23.4,19.3,89,71,50,30.15,30.05,2,0,6,0.00
2014-12-7,47.1,37.4,24.9,24.5,19.3,14.5,71,49,29,30.06,29.96,3,1,12,0.00
2014-12-8,51.0,32.8,21.6,15.7,9.8,1.4,76,43,14,30.17,30.04,1,0,5,0.00
2014-12-9,54.5,36.9,20.3,11.4,2.4,-5.3,63,28,9,30.16,29.92,1,0,5,0.00
2014-12-10,52.3,34.6,23.1,7.6,0.0,-4.8,36,24,12,29.92,29.82,1,0,5,0.00
2014-12-11,52.5,38.5,23.5,13.4,7.6,-3.0,52,29,18,29.92,29.80,2,0,6,0.00
2014-12-12,54.2,38.5,24.8,20.5,10.5,2.5,59,35,13,29.90,29.76,2,0,8,0.00
2014-12-13,46.8,38.5,29.9,30.0,21.9,15.1,89,52,33,29.75,29.36,4,0,11,0.00
2014-12-14,35.1,29.1,24.4,30.0,23.2,13.3,94,79,61,29.64,29.31,3,1,5,0.13
2014-12-15,32.9,22.5,10.3,13.6,8.9,4.5,81,57,34,30.08,29.64,3,1,9,0.03
2014-12-16,41.6,27.0,10.6,21.5,12.7,5.9,81,57,34,30.11,29.86,4,0,9,0.04
2014-12-17,33.8,25.0,18.7,25.0,18.7,13.1,93,77,65,29.86,29.67,1,0,5,0.01
2014-12-18,35.9,24.5,15.3,19.8,16.4,12.1,94,73,44,29.96,29.82,2,0,5,0.01
2014-12-19,32.7,26.0,16.1,14.6,11.3,9.2,88,55,38,29.98,29.89,3,1,8,0.00
2014-12-20,40.4,31.3,25.2,18.3,14.9,9.8,69,51,39,29.92,29.69,3,0,8,0.00
2014-12-21,39.1,33.3,22.9,28.7,20.0,14.9,91,59,45,29.69,29.38,5,1,11,0.00
2014-12-22,33.0,26.7,14.4,28.8,19.1,6.0,92,74,55,29.66,29.33,1,0,7,0.04
2014-12-23,26.9,17.1,7.8,6.7,-0.7,-7.2,71,46,26,30.11,29.65,2,0,8,0.00
2014-12-24,40.3,25.0,7.7,15.7,5.4,-4.3,63,43,31,30.07,29.45,2,0,12,0.00
2014-12-25,33.5,26.1,17.3,19.8,13.0,6.0,90,58,46,29.44,29.26,3,0,6,0.00
2014-12-26,19.5,12.2,9.0,16.1,9.2,5.7,89,88,86,29.68,29.43,4,0,6,0.00
2014-12-29,14.8,5.2,-11.2,10.8,1.7,-15.7,87,85,80,30.37,29.94,3,1,9,0.00
2014-12-30,-2.1,-7.1,-13.7,-4.0,-11.1,-18.3,92,82,79,30.64,30.28,0,0,9,0.00
2014-12-31,23.9,4.6,-11.6,18.6,0.2,-16.0,90,82,75,30.65,30.41,2,0,9,0.00
2015-1-1,19.0,12.5,2.2,15.5,9.6,-1.2,92,88,81,30.13,29.98,1,0,2,0.00
2015-1-2,28.1,12.5,0.8,20.1,8.2,-2.4,93,83,66,30.17,29.89,1,0,2,0.00